Location: Arboucave
(43.6130°N, 0.4343°W)
Time: 12:19:56
(UTC+00:00)

Cosmos 1975 Rocket - Pass Details

Date: 17 November 2025
Orbit: 598 x 626 km, 82.5° (Epoch: 11 December)

Event Time Altitude Azimuth Distance (km) Brightness Sun altitude
Rises 17:27:29 0° 351° (N) 2,870 6.4 -9.7°
Reaches altitude 10° 17:29:42 10° 351° (N) 1,966 5.6 -10.1°
Maximum altitude 17:34:03 89° 269° (W) 617 3.0 -10.9°
Drops below altitude 10° 17:38:25 10° 174° (S) 1,968 5.8 -11.6°
Sets 17:40:38 0° 174° (S) 2,873 6.6 -12.0°
